TimeEST,TemperatureF,Dew PointF,Humidity,Sea Level PressureIn,VisibilityMPH,Wind Direction,Wind SpeedMPH,Gust SpeedMPH,PrecipitationIn,Events,Conditions,WindDirDegrees,DateUTC
12:51 AM,24.8,24.8,100,-9999,0.0,SW,40.3,54.1,N/A,Fog-Snow,Light Snow,220,2012-01-02 05:51:00
1:51 AM,24.8,24.8,100,-9999,0.1,SW,42.6,49.5,N/A,Fog-Snow,Low Drifting Snow,230,2012-01-02 06:51:00
2:50 AM,24.8,24.8,100,-9999,0.1,SW,41.4,49.5,N/A,Fog-Snow,Low Drifting Snow,230,2012-01-02 07:50:00
3:53 AM,24.8,24.8,100,-9999,0.1,WSW,43.7,49.5,N/A,Fog-Snow,Low Drifting Snow,240,2012-01-02 08:53:00
4:51 AM,19.4,19.4,100,-9999,0.0,West,42.6,-,N/A,Fog-Snow,Light Snow,260,2012-01-02 09:51:00
5:56 AM,15.8,15.8,100,-9999,0.0,WSW,46.0,55.2,N/A,Fog-Snow,Low Drifting Snow,250,2012-01-02 10:56:00
6:50 AM,14.0,14.0,100,-9999,0.0,WSW,46.0,-,N/A,Fog-Snow,Low Drifting Snow,250,2012-01-02 11:50:00
7:55 AM,12.2,12.2,100,-9999,0.1,West,55.2,59.8,N/A,Fog-Snow,Low Drifting Snow,260,2012-01-02 12:55:00
8:52 AM,12.2,12.2,100,-9999,0.0,West,57.5,-,N/A,Fog-Snow,Low Drifting Snow,260,2012-01-02 13:52:00
9:53 AM,12.2,12.2,100,-9999,0.0,WSW,58.7,-,N/A,Fog-Snow,Low Drifting Snow,250,2012-01-02 14:53:00
10:50 AM,12.2,12.2,100,-9999,0.0,West,56.4,-,N/A,Fog-Snow,Low Drifting Snow,260,2012-01-02 15:50:00
11:57 AM,12.2,12.2,100,-9999,0.0,West,52.9,65.6,N/A,Fog-Snow,Low Drifting Snow,260,2012-01-02 16:57:00
12:49 PM,10.4,10.4,100,-9999,0.0,WSW,50.6,56.4,N/A,Fog-Snow,Light Snow Showers,250,2012-01-02 17:49:00
1:57 PM,10.4,10.4,100,-9999,0.0,West,51.8,58.7,N/A,Fog-Snow,Light Snow Showers,260,2012-01-02 18:57:00
2:54 PM,10.4,10.4,100,-9999,0.0,WSW,51.8,57.5,N/A,Fog-Snow,Low Drifting Snow,250,2012-01-02 19:54:00
3:56 PM,10.4,10.4,100,-9999,0.0,West,57.5,-,N/A,Fog-Snow,Low Drifting Snow,260,2012-01-02 20:56:00
4:54 PM,8.6,8.6,100,-9999,0.0,West,57.5,-,N/A,Fog-Snow,Light Snow Showers,260,2012-01-02 21:54:00
5:52 PM,8.6,8.6,100,-9999,0.0,WSW,61.0,67.9,N/A,Fog-Snow,Low Drifting Snow,250,2012-01-02 22:52:00
6:52 PM,8.6,8.6,100,-9999,0.0,West,67.9,76.0,N/A,Fog-Snow,Blowing Snow,260,2012-01-02 23:52:00
7:52 PM,6.8,6.8,100,-9999,0.0,West,67.9,72.5,N/A,Fog-Snow,Blowing Snow,260,2012-01-03 00:52:00
8:51 PM,6.8,6.8,100,-9999,0.0,West,65.6,70.2,N/A,Fog-Snow,Blowing Snow,260,2012-01-03 01:51:00
9:50 PM,5.0,5.0,100,-9999,0.0,West,56.4,-,N/A,Fog-Snow,Light Snow,270,2012-01-03 02:50:00
10:50 PM,3.2,3.2,100,-9999,0.0,West,61.0,66.7,N/A,Fog-Snow,Blowing Snow,260,2012-01-03 03:50:00
11:51 PM,1.4,1.4,100,-9999,0.0,West,56.4,-,N/A,Fog-Snow,Light Snow,270,2012-01-03 04:51:00